Simultaneous Nadir Overpasses (SNOs) Predictions

Prediction of SNOs between NPP and GCOM-C Satellite Orbit:

Table of predicted SNOs for the next 14.0 days since TLE Epoch: 8/17/2024
Index Date (NPP) Time (NPP) Lat,Lon (NPP) SZA (NPP ) Date (GCOM-C) Time (GCOM-C) Lat,Lon (GCOM-C) SZA (GCOM-C ) Distance(km) Time Diff (sec)
1 08/17/2024 19:13:59 69.46,-111.34 56.34 08/17/2024 19:15:10 69.40,-110.37 56.25 38.47 71
2 08/17/2024 20:04:35 -69.07, 56.54 124.06 08/17/2024 20:05:46 -69.07, 56.55 124.07 0.37 71
3 08/17/2024 20:55:21 69.04,-136.12 55.93 08/17/2024 20:56:14 69.02,-136.13 55.90 2.84 53
4 08/17/2024 21:46:04 -69.02, 31.23 124.09 08/17/2024 21:46:44 -69.01, 31.23 124.10 1.07 40
5 08/17/2024 22:36:50 69.00,-161.43 55.90 08/17/2024 22:37:11 69.01,-161.38 55.92 2.80 21
6 08/17/2024 23:27:33 -68.97, 5.92 124.12 08/17/2024 23:27:42 -68.95, 5.91 124.14 2.40 9
7 08/18/2024 00:18:19 68.95, 173.26 55.88 08/18/2024 00:18:09 68.95, 173.31 55.88 1.85 10
8 08/18/2024 01:09:02 -68.92, -19.39 124.14 08/18/2024 01:08:39 -68.95, -19.33 124.12 3.23 23
9 08/18/2024 01:59:48 68.90, 147.95 55.85 08/18/2024 01:59:07 68.89, 147.99 55.84 1.68 41
10 08/18/2024 02:50:31 -68.88, -44.70 124.17 08/18/2024 02:49:37 -68.89, -44.65 124.16 2.24 54
11 08/18/2024 03:41:17 68.85, 122.64 55.82 08/18/2024 03:40:05 68.83, 122.67 55.81 2.47 72
12 08/18/2024 04:31:53 -68.46, -69.51 124.58 08/18/2024 04:30:41 -68.50, -70.38 124.51 36.04 72
13 08/30/2024 16:48:08 70.01, -75.64 61.30 08/30/2024 16:49:15 69.96, -73.21 61.21 92.77 67
14 08/30/2024 17:38:43 -69.53, 92.38 119.18 08/30/2024 17:39:54 -69.48, 93.47 119.26 42.90 71
15 08/30/2024 18:29:21 69.11, -99.72 60.40 08/30/2024 18:30:28 69.09, -99.68 60.38 2.78 67
16 08/30/2024 19:20:04 -69.06, 67.67 119.64 08/30/2024 19:20:59 -69.04, 67.63 119.66 2.88 55
17 08/30/2024 20:10:49 69.01,-124.96 60.33 08/30/2024 20:11:26 69.03,-125.00 60.34 2.32 37
18 08/30/2024 21:01:33 -69.02, 42.35 119.66 08/30/2024 21:01:56 -69.03, 42.38 119.65 1.69 23
19 08/30/2024 21:52:18 68.97,-150.27 60.31 08/30/2024 21:52:24 68.96,-150.32 60.30 2.23 6
20 08/30/2024 22:43:02 -68.97, 17.04 119.68 08/30/2024 22:42:54 -68.97, 17.05 119.69 0.88 8
21 08/30/2024 23:33:47 68.92,-175.58 60.29 08/30/2024 23:33:21 68.95,-175.57 60.32 3.24 26
22 08/31/2024 00:24:31 -68.93, -8.27 119.70 08/31/2024 00:23:52 -68.90, -8.27 119.72 2.86 39
23 08/31/2024 01:15:16 68.88, 159.10 60.27 08/31/2024 01:14:19 68.89, 159.10 60.28 1.04 57
24 08/31/2024 02:06:00 -68.88, -33.59 119.72 08/31/2024 02:04:49 -68.89, -33.52 119.71 2.85 71



Historial Predications of SNOs between NPP and GCOM-C
